This is the latest recevied weather packets stored in our database for station/object KN6DHD. If no packets are shown the sender has not sent any weather packets the latest 10 day(s).
| Time | Temp. | Humidity | Pressure | Rain* | Wind** | Luminosity | Snow |
|---|---|---|---|---|---|---|---|
| 1778121727 | 23.33° C | 63% | 1017.2 hPa | 0 mm | - | 9 W/m² | - |
| 1778121422 | 23.89° C | 62% | 1017.2 hPa | 0 mm | - | 12 W/m² | - |
| 1778121120 | 23.89° C | 60% | 1017.1 hPa | 0 mm | - | 14 W/m² | - |
| 1778120817 | 23.89° C | 60% | 1017.4 hPa | 0 mm | - | 16 W/m² | - |
| 1778120513 | 23.89° C | 60% | 1017 hPa | 0 mm | - | 19 W/m² | - |
| 1778120209 | 23.89° C | 60% | 1016.9 hPa | 0 mm | - | 21 W/m² | - |
| 1778119904 | 23.89° C | 59% | 1017 hPa | 0 mm | - | 23 W/m² | - |
| 1778119603 | 24.44° C | 59% | 1016.9 hPa | 0 mm | - | 27 W/m² | - |
| 1778119299 | 24.44° C | 59% | 1017 hPa | 0 mm | - | 27 W/m² | - |
| 1778118997 | 24.44° C | 58% | 1017.2 hPa | 0 mm | - | 29 W/m² | - |
| 1778118694 | 24.44° C | 58% | 1017.2 hPa | 0 mm | - | 31 W/m² | - |
| 1778118391 | 25° C | 57% | 1017.1 hPa | 0 mm | - | 32 W/m² | - |
| 1778118087 | 25° C | 57% | 1017 hPa | 0 mm | - | 33 W/m² | - |
| 1778117784 | 25° C | 57% | 1017 hPa | 0 mm | - | 35 W/m² | - |
| 1778117481 | 25° C | 57% | 1017 hPa | 0 mm | - | 37 W/m² | - |
| 1778117178 | 25° C | 58% | 1017 hPa | 0 mm | - | 39 W/m² | - |
| 1778116874 | 25° C | 57% | 1016.9 hPa | 0 mm | - | 40 W/m² | - |
| 1778116572 | 25° C | 57% | 1017 hPa | 0 mm | - | 142 W/m² | - |
| 1778116268 | 25° C | 58% | 1017.1 hPa | 0 mm | - | 44 W/m² | - |
| 1778115963 | 25° C | 57% | 1017.2 hPa | 0 mm | - | 45 W/m² | - |
| 1778115659 | 25° C | 58% | 1017.3 hPa | 0 mm | - | 47 W/m² | - |
| 1778115356 | 25° C | 57% | 1016.9 hPa | 0 mm | - | 140 W/m² | - |
| 1778115052 | 25.56° C | 56% | 1017.1 hPa | 0 mm | - | 52 W/m² | - |
| 1778114750 | 25° C | 56% | 1017.3 hPa | 0 mm | - | 203 W/m² | - |
| 1778114447 | 25° C | 56% | 1017 hPa | 0 mm | - | 55 W/m² | - |
* Rain latest hour (hover to see other rain measurements)
** Current wind speed in m/s (hover to see current wind gust speed)